Tracking 31027 objects as of 19-Jul-2025
HD Live streaming from Space Station
objects crossing your sky now

SCOUT A DEB

Track SCOUT A DEB now!
10-day predictions


NORAD ID: 3214
Int'l Code: 1968-012D
Perigee: 1,015.7 km
Apogee: 1,298.3 km
Inclination: 89.8 °
Period: 108.3 minutes
Semi major axis: 7528 km
RCS: 0.049 m2 (small)
Launch date: March 2, 1968
Source: United States (US)
Launch site: AIR FORCE WESTERN TEST RANGE (AFWTR)

Note: This is SATELLITE DEBRIS
Your satellite tracking list
CZ-4C DEB
Track 1 satellite(s)




NASA's NSSDC Master Catalog

Two Line Element Set (TLE):
1 03214U 68012D   25197.22874742  .00000152  00000-0  27744-3 0  9992
2 03214  89.8337 109.3449 0187668 114.1626  39.3942 13.29172709539904
Source of the keplerian elements: AFSPC